RH
33 30 26 23 22 25 30 29 27 29 31 31 32 32 31 28 27 26 25 25 25 25 26 27 27 27 27 27 28 28 27 25 25 26 25 25 25 24 23 22 21 21 20 20 19 20 25 29 25 21 24 24 19 16 18 26 37 43 42 35 28 26 25 21 20 21 21 23 23 23 24 24 24 24 23 23 22 21 20 19 18 18 18 18 23
48 41 42 42 36 34 39 40 37 34 33 33 33 34 33 31 28 26 25 25 25 25 25 26 27 27 27 28 28 27 27 26 26 28 27 27 27 25 24 23 22 22 21 20 21 26 34 35 26 19 24 25 19 17 19 24 36 50 51 38 24 20 22 22 22 22 22 23 24 24 25 25 25 26 26 25 24 22 21 21 19 18 17 17 18
42 49 66 71 64 56 51 48 47 43 38 35 33 32 33 31 28 26 25 25 25 25 25 26 27 27 27 28 28 28 28 28 28 30 30 29 29 28 26 25 23 23 22 21 22 27 34 32 23 19 19 19 18 18 18 20 32 47 47 34 25 23 23 23 24 25 25 24 25 27 27 27 27 28 28 28 26 25 23 21 21 21 18 18 20
28 47 73 83 84 77 59 46 44 41 37 33 31 30 31 31 30 27 25 25 25 25 26 26 26 27 28 28 28 29 29 29 31 33 32 31 31 30 28 27 26 24 24 23 22 23 25 23 20 20 19 18 19 18 20 26 32 36 33 28 27 26 24 25 27 27 27 27 27 27 28 29 29 29 30 31 29 26 24 23 22 22 21 20 20
21 30 44 53 57 54 42 36 35 32 29 28 29 29 30 31 31 28 26 25 25 25 26 27 28 30 33 33 31 31 31 32 33 34 34 34 33 32 31 29 28 26 25 23 22 21 21 21 21 20 19 20 18 19 30 38 34 29 29 28 27 26 25 27 29 28 30 31 30 30 31 32 32 32 32 33 32 28 25 25 24 23 23 23 23
21 22 24 26 27 27 29 31 30 27 26 27 27 28 29 29 29 28 26 25 26 27 27 28 30 32 34 36 36 36 37 36 35 36 36 36 35 33 32 31 28 27 25 24 23 22 21 21 21 20 20 19 19 28 42 40 28 26 29 28 26 27 28 29 31 33 35 37 39 41 40 38 35 34 34 34 33 29 26 27 26 25 25 23 25
23 23 24 24 24 25 27 29 27 26 26 26 27 27 27 28 28 27 26 26 27 28 28 30 31 31 32 35 40 49 51 43 37 37 38 38 38 36 34 32 30 27 26 24 23 22 21 21 21 21 21 18 25 42 48 35 23 24 27 27 29 30 30 32 34 37 41 45 51 52 47 41 37 36 37 35 33 30 28 29 28 28 28 26 27
24 25 25 25 26 25 26 27 26 26 26 25 26 27 27 28 27 26 26 27 28 29 29 30 30 31 32 33 40 57 71 65 49 41 40 40 39 38 36 33 30 28 27 26 24 22 22 21 21 22 21 20 28 37 34 25 24 27 28 30 33 33 34 36 38 43 50 55 56 53 46 41 39 38 39 37 34 32 30 31 31 30 30 29 29
25 25 25 25 25 25 25 26 26 25 26 26 26 27 27 27 27 27 27 28 29 29 30 31 30 31 34 34 34 47 68 74 59 43 40 42 40 38 37 35 32 31 29 26 25 23 22 22 22 22 22 22 25 26 24 25 28 30 32 35 37 39 40 43 48 54 59 59 56 51 47 44 42 42 41 38 35 35 34 33 33 33 33 32 32
26 25 25 26 25 25 25 26 27 27 26 26 27 27 28 28 28 28 29 29 30 30 30 31 32 33 35 36 36 37 46 55 51 42 41 43 42 40 38 36 34 32 30 27 25 24 23 23 23 23 22 22 24 26 27 30 31 34 39 42 44 46 49 55 61 63 62 59 55 51 47 45 45 44 42 40 37 37 37 35 35 36 36 37 38
27 26 26 27 27 27 26 27 28 28 28 28 29 28 29 29 29 30 31 33 32 31 32 32 33 35 35 37 37 37 44 50 46 43 45 45 43 43 41 39 36 34 31 28 25 25 24 24 25 25 24 24 26 29 31 34 37 42 47 50 51 54 59 64 66 62 59 57 52 47 43 44 46 45 42 41 40 40 39 38 39 41 41 41 43
28 27 26 27 29 29 30 31 32 31 31 30 29 30 30 30 31 32 34 35 34 33 34 33 34 36 36 37 37 39 53 63 54 48 50 48 46 46 44 41 39 35 32 28 26 25 25 25 26 26 26 27 29 33 37 39 42 47 52 55 57 61 64 64 62 59 57 54 48 44 43 44 45 45 43 43 43 42 42 42 43 46 48 46 46
28 28 28 29 30 32 36 38 36 33 31 30 30 31 33 34 36 35 33 34 34 35 35 35 36 37 36 38 38 38 51 67 70 67 63 54 49 50 48 43 40 36 33 29 27 26 25 26 28 27 28 30 33 38 42 43 46 52 57 60 63 64 62 59 59 58 54 50 47 43 42 44 45 46 46 45 45 44 44 47 49 51 53 52 52
27 28 28 27 28 33 38 39 36 32 30 31 32 35 39 40 38 35 33 33 34 35 36 36 37 38 38 40 41 39 43 53 64 69 65 56 52 52 49 45 40 35 32 29 26 26 27 27 28 29 30 32 37 42 45 48 53 60 63 65 64 62 59 57 57 55 51 47 44 41 41 45 48 49 49 48 48 48 49 52 56 56 55 55 56
27 28 29 27 32 42 47 43 40 40 38 37 38 39 41 40 37 34 33 34 35 36 37 38 38 39 40 40 42 44 42 46 58 67 65 58 54 54 53 47 39 34 31 29 27 27 28 29 29 31 32 36 42 48 52 56 63 67 69 68 65 60 58 56 55 54 52 45 39 38 42 48 51 52 52 51 50 53 57 60 60 56 52 51 52
28 28 28 28 34 43 45 40 38 40 40 37 36 36 37 36 34 34 34 35 36 37 37 39 38 39 41 41 44 45 43 55 76 82 71 61 56 53 52 46 37 33 30 28 28 28 29 29 30 32 36 41 48 54 58 64 69 73 73 69 64 58 54 53 56 57 51 40 35 38 44 50 55 55 54 56 57 59 63 64 60 53 47 45 45
31 31 31 31 32 34 34 33 32 33 33 32 32 32 33 33 33 34 34 35 37 38 38 39 38 40 41 42 46 45 46 69 96 92 73 63 56 48 45 40 35 32 29 28 30 29 29 31 32 36 42 48 54 58 63 69 74 76 74 66 58 52 50 54 60 58 48 37 34 41 49 53 56 57 58 60 63 65 66 64 57 49 43 40 41
33 33 33 33 33 32 31 31 31 31 31 32 32 32 33 33 34 35 35 37 38 39 39 39 39 41 42 44 48 46 47 73 102 101 85 72 55 43 42 39 35 32 29 30 31 30 31 34 36 41 48 54 59 62 67 74 77 76 69 60 52 49 52 59 62 56 46 39 37 43 51 55 56 59 61 64 66 67 64 58 50 43 38 37 39
34 34 35 34 34 32 31 31 32 32 33 33 33 34 34 34 35 36 37 38 39 39 40 40 40 41 43 46 49 46 47 65 87 98 98 84 60 47 44 38 34 33 30 30 31 31 34 36 38 46 54 57 62 68 74 78 76 69 61 54 51 52 56 63 64 56 47 41 37 39 47 54 57 60 63 65 66 64 57 49 41 37 35 35 36
34 34 34 33 31 31 31 31 31 32 33 34 34 35 35 35 37 38 39 40 41 40 40 41 41 41 43 44 46 46 48 54 60 73 88 86 68 54 46 38 35 34 31 32 33 34 36 38 43 50 55 60 68 76 79 75 67 59 53 51 55 58 61 67 67 56 47 41 36 36 43 51 57 59 61 62 60 53 46 39 34 32 32 32 32
38 37 34 32 31 30 30 31 32 33 34 35 36 36 37 38 39 40 41 42 42 42 41 41 41 41 42 43 45 47 48 49 51 65 83 87 73 56 45 39 37 35 34 35 35 36 38 41 45 51 57 67 76 79 74 65 56 51 51 55 60 60 64 72 69 55 46 41 36 37 44 51 54 55 55 52 48 41 35 31 29 28 27 26 25
39 36 33 31 29 28 29 31 33 34 36 38 39 39 40 41 41 42 43 43 44 46 46 45 44 43 43 49 55 56 55 53 55 66 80 82 69 54 44 41 39 37 37 37 37 40 40 41 46 53 62 73 78 73 64 54 49 51 57 61 61 62 70 76 67 53 46 41 36 40 47 50 51 50 47 43 38 32 29 27 27 25 22 19 16
34 32 29 28 28 29 31 32 33 35 37 39 42 43 44 46 46 45 45 47 51 54 54 54 58 56 54 60 66 64 64 64 61 63 70 69 60 51 45 42 40 38 39 40 40 40 40 42 48 57 67 75 73 62 52 49 53 60 63 62 64 72 81 76 60 50 46 39 35 40 45 47 46 44 41 37 32 28 27 26 23 19 16 13 10
24 25 26 27 28 31 33 33 33 35 36 40 44 45 47 52 55 55 57 62 67 71 74 80 85 83 78 80 81 77 78 80 73 67 65 59 52 49 46 42 40 40 40 40 40 40 42 46 52 61 69 69 59 50 50 57 63 65 64 69 80 88 84 68 53 49 46 38 34 39 42 43 41 39 37 32 27 26 25 22 18 13 10 9 7
19 22 25 29 31 34 35 35 35 36 41 47 49 49 54 63 68 73 83 93 97 98 98 100 102 103 103 103 100 95 93 88 77 68 63 55 49 48 47 43 41 41 41 40 41 42 44 50 58 64 62 53 47 51 59 64 66 69 76 88 95 89 72 57 49 49 45 37 34 37 40 39 37 35 32 28 25 25 21 15 11 9 8 7 7
14 17 20 23 28 32 33 35 39 43 51 59 63 68 76 80 82 87 96 102 108 108 104 101 103 106 110 110 106 100 94 86 78 70 62 55 50 48 46 43 42 42 42 41 42 45 50 57 61 57 48 44 50 59 64 67 74 86 96 99 90 74 58 51 49 48 44 38 34 36 37 35 32 29 27 25 23 20 15 11 9 8 7 7 7
13 23 34 35 35 40 44 47 55 65 75 83 86 89 89 83 84 93 91 85 93 104 103 100 103 105 106 107 107 102 95 89 82 71 61 55 51 47 45 44 44 41 40 42 46 53 59 58 53 45 43 49 58 64 71 82 92 100 101 92 77 61 51 50 50 47 42 37 34 34 33 30 27 24 23 23 20 15 10 9 8 7 7 8 7
9 41 82 92 82 80 82 82 87 94 100 99 93 91 93 89 87 95 95 89 94 104 103 98 101 103 103 105 106 102 93 85 76 69 61 53 48 46 45 42 40 38 42 50 57 60 56 48 43 43 49 57 66 76 88 98 103 102 93 79 64 54 51 53 52 46 40 36 32 30 29 26 24 23 22 19 14 10 8 8 8 9 9 9 8
9 38 84 103 104 104 102 99 102 103 99 94 89 90 99 100 95 97 104 104 101 100 100 99 100 102 102 104 104 99 89 78 70 66 63 54 47 45 42 38 41 49 57 61 59 52 46 43 45 52 60 70 83 93 100 102 100 93 80 66 56 54 56 56 50 42 37 33 29 27 26 24 22 22 20 15 11 8 8 9 9 11 11 10 10
39 63 76 84 99 109 105 101 103 101 96 95 97 96 97 98 96 98 106 107 101 99 102 101 99 101 102 103 101 95 86 78 69 62 59 53 46 42 42 47 57 64 62 54 46 42 45 51 57 65 77 89 97 99 101 100 93 80 67 58 56 59 59 53 45 38 34 29 27 26 25 23 23 22 17 12 10 9 9 9 10 11 12 11 11
80 96 84 76 86 97 103 107 105 98 95 97 99 100 98 96 97 101 104 103 100 101 101 100 100 102 102 101 100 94 87 81 70 59 54 50 44 45 54 63 66 59 47 41 42 48 56 63 70 82 94 99 100 99 98 93 82 70 61 57 60 63 58 47 39 35 31 27 27 26 24 24 24 21 15 11 10 11 11 11 12 12 11 11 11
99 92 83 80 82 86 99 110 105 97 97 99 98 100 101 99 100 103 103 101 100 100 100 100 101 101 99 99 100 94 84 77 66 54 49 48 48 54 62 62 54 44 40 44 52 61 67 75 85 95 99 99 101 99 92 83 74 64 58 59 65 64 53 40 35 32 29 28 27 26 25 26 24 18 12 11 12 13 15 15 13 12 12 11 11
96 87 84 86 91 91 93 98 98 96 100 101 99 99 100 99 101 101 99 100 101 101 101 100 100 100 100 100 97 90 78 67 58 52 49 50 52 57 57 50 42 41 49 59 67 74 82 90 95 97 99 102 103 94 82 75 68 60 58 64 67 58 44 35 33 30 28 28 27 25 25 25 21 15 11 11 12 15 17 17 15 14 13 11 11
90 92 88 88 99 102 96 98 101 100 100 101 100 100 100 99 99 100 101 104 104 101 100 101 100 100 101 96 89 80 70 60 53 51 49 50 52 52 48 43 45 55 67 77 85 91 95 97 98 101 103 103 95 84 76 70 62 59 64 68 61 47 38 34 31 28 28 28 26 25 26 24 17 13 11 11 14 16 17 16 15 14 12 12 12
93 96 93 98 106 103 98 101 103 100 101 102 101 100 100 100 101 103 104 103 101 99 100 102 101 100 97 89 79 71 64 57 52 51 51 51 52 49 48 53 65 77 86 92 96 98 99 100 103 105 100 90 82 77 72 65 61 66 71 64 51 40 35 31 29 28 29 27 25 26 26 22 15 12 12 13 14 16 16 15 15 14 13 12 12
101 97 93 100 106 103 100 101 100 99 101 102 100 101 102 102 104 104 101 99 99 100 101 101 100 96 89 81 73 65 58 53 53 54 56 55 52 51 58 73 87 95 99 100 99 99 101 103 100 91 82 78 79 75 66 62 68 73 66 53 43 37 32 29 29 29 27 26 27 28 25 19 14 13 14 14 15 15 15 14 14 14 14 13 12
98 96 94 97 100 102 102 101 100 100 100 100 101 103 102 101 101 99 98 99 100 101 101 100 95 86 79 74 70 63 58 59 63 63 60 58 61 69 81 91 98 99 98 97 97 98 98 93 84 77 76 79 77 69 64 69 74 68 55 44 39 35 30 29 29 28 27 28 29 27 23 17 14 14 14 15 15 16 16 16 16 16 15 14 14
93 100 102 100 98 99 100 99 100 101 101 103 104 101 100 100 99 98 100 102 102 101 99 93 84 78 76 74 70 68 69 71 70 69 70 72 76 85 94 97 97 94 92 93 95 94 87 80 76 78 80 77 70 67 72 74 68 56 47 42 37 32 29 28 28 27 28 29 29 26 21 15 14 16 17 17 17 18 18 18 18 17 16 15 15
99 101 103 101 99 99 99 99 100 101 102 102 101 98 98 98 98 100 102 102 99 97 92 84 80 81 83 83 79 78 80 78 74 81 92 94 89 89 92 92 90 90 92 93 90 83 79 80 83 81 77 73 73 75 75 67 56 48 45 40 34 30 29 28 28 29 29 29 29 24 18 16 17 19 19 20 20 20 19 19 19 18 17 16 15
100 99 101 102 100 99 100 101 101 100 100 98 97 97 98 100 102 103 101 98 95 92 86 85 88 88 90 91 89 85 86 86 84 85 91 93 93 94 93 90 88 92 94 89 82 79 82 86 84 78 74 75 77 74 65 56 50 48 44 37 32 30 28 28 29 30 30 30 29 23 18 18 21 23 23 23 22 20 19 19 19 18 17 16 15
101 100 102 103 102 101 102 101 99 98 99 99 100 101 103 103 101 95 92 95 99 96 89 90 94 94 95 96 91 83 82 85 85 85 89 92 94 93 91 92 94 94 87 80 79 84 87 83 79 77 77 75 71 63 56 52 50 48 42 35 31 29 29 30 31 31 31 32 28 22 20 22 25 26 26 25 23 21 20 19 19 19 18 16 16
99 99 100 100 100 101 100 99 99 101 101 101 103 104 101 95 91 91 94 100 103 99 93 93 95 96 97 94 87 82 85 89 93 97 97 94 93 94 97 97 90 81 78 81 86 88 86 82 81 80 74 67 61 56 53 53 51 46 39 34 31 31 31 31 32 33 34 32 27 22 22 26 27 28 29 27 24 23 21 19 19 19 18 17 16
97 99 100 99 100 101 101 101 102 102 100 100 103 101 93 86 90 99 100 96 94 94 95 95 96 97 97 95 94 97 100 99 99 99 98 97 98 98 92 83 75 75 83 90 90 87 86 85 82 75 67 61 58 57 56 54 49 42 36 34 32 32 32 32 34 35 35 32 26 22 24 28 29 30 30 28 26 24 21 19 19 19 19 18 17
99 99 100 99 99 99 99 99 97 95 93 92 93 92 89 88 95 101 98 93 94 97 95 92 92 94 95 94 94 99 101 99 99 103 104 99 90 79 74 76 82 87 89 88 87 88 88 83 75 67 63 61 61 60 57 51 44 38 36 35 33 33 33 33 35 37 36 31 25 23 26 30 31 31 31 29 27 26 23 20 19 19 19 20 18
101 99 99 100 99 97 95 93 90 88 88 90 91 93 94 95 97 97 94 94 94 92 87 86 88 92 93 90 87 91 98 99 96 92 86 76 71 76 86 94 92 85 83 87 93 92 83 73 68 66 65 64 62 57 51 45 40 38 37 36 34 34 34 34 36 39 36 29 25 25 29 32 33 33 32 30 28 27 25 22 20 19 20 20 19
102 100 100 101 101 100 98 96 94 95 98 100 100 99 97 94 91 87 84 83 81 76 73 72 73 76 81 81 77 78 82 80 75 74 76 80 88 97 98 90 81 81 89 95 91 82 72 68 68 68 66 62 58 51 45 42 40 38 37 37 36 35 34 35 38 40 35 28 25 28 32 34 35 35 33 31 29 28 26 24 22 20 20 21 21
102 102 101 100 100 102 102 100 100 102 104 102 97 93 89 86 80 75 72 71 68 64 61 60 61 66 72 72 68 67 71 76 83 92 97 97 93 86 79 78 84 92 95 90 79 72 71 72 70 67 62 56 51 47 43 42 40 39 38 39 37 35 35 38 41 40 35 29 27 30 34 36 37 37 35 33 31 29 27 25 23 21 20 21 21
99 99 97 94 93 95 95 94 94 95 94 92 88 82 77 72 69 68 69 71 71 73 74 75 78 82 82 79 78 84 92 99 102 98 88 80 76 75 80 89 95 93 86 80 75 75 76 72 66 61 55 51 47 45 43 41 41 41 41 40 38 36 37 40 43 41 35 29 28 32 36 38 39 39 37 35 33 31 29 27 25 23 22 22 22
97 97 94 92 90 90 88 87 86 85 84 84 83 80 76 74 75 77 79 81 85 90 93 94 96 98 99 98 98 99 96 92 85 77 71 75 84 91 94 95 92 85 80 80 81 79 73 66 58 53 50 49 47 44 42 43 44 43 42 41 40 38 39 42 45 42 35 29 30 34 37 39 41 41 39 37 35 32 30 29 27 25 24 23 22
88 88 88 88 86 85 84 84 86 88 91 93 94 93 91 92 93 94 95 97 100 102 102 101 99 97 94 89 85 81 76 73 75 79 85 93 99 97 90 86 83 81 82 85 82 73 63 56 52 51 51 50 46 44 44 47 47 45 44 44 42 40 42 46 46 42 35 31 32 36 38 40 42 42 40 38 36 34 32 31 29 27 26 25 23
82 83 85 86 84 82 82 83 84 86 87 87 88 90 93 96 97 96 93 90 88 85 79 74 70 69 69 70 71 75 79 83 87 91 93 93 90 85 81 81 85 87 87 83 73 60 53 52 53 52 52 50 47 46 48 51 50 48 47 45 43 43 46 48 47 43 36 32 33 38 41 43 44 44 42 40 37 35 34 33 31 30 29 27 25
Wind_Speed
27 27 27 27 27 26 26 26 26 27 28 29 29 30 31 31 32 33 33 33 33 34 35 35 36 38 39 39 39 39 39 39 40 40 41 41 42 44 44 44 45 45 46 46 45 45 45 44 45 46 45 45 46 46 47 47 47 45 43 43 46 48 50 51 50 49 48 48 47 46 45 45 44 44 45 46 47 47 47 48 47 47 48 49 51
30 29 30 30 30 29 28 28 29 28 29 30 30 32 33 33 34 35 35 35 36 36 37 38 38 40 40 41 42 42 42 42 42 42 42 43 43 44 45 45 45 46 47 47 47 47 46 46 48 49 47 47 48 48 47 48 48 47 45 46 49 51 52 53 54 53 52 51 51 50 49 49 48 47 47 48 48 48 49 50 50 50 49 49 50
32 32 31 31 31 31 32 31 31 31 31 32 33 34 35 36 37 37 37 37 38 38 39 40 41 42 43 43 44 45 45 44 45 45 45 45 45 46 46 46 47 48 49 49 49 49 48 49 51 51 50 49 50 50 49 49 49 49 48 50 52 53 55 56 56 56 55 54 54 53 53 53 52 52 51 51 51 50 50 50 50 51 51 50 51
34 33 32 32 32 33 34 34 34 34 34 34 35 36 37 38 39 39 39 39 40 40 41 42 43 44 45 46 46 47 47 47 48 48 48 48 48 49 49 49 49 50 51 51 51 51 51 52 52 52 53 52 52 52 50 49 50 51 51 52 53 55 56 57 57 58 58 57 56 55 55 55 56 56 55 55 55 53 52 51 51 51 51 50 50
36 35 35 35 34 35 36 37 37 37 36 36 37 38 39 40 41 41 41 41 41 42 43 44 45 46 48 49 49 49 50 50 51 51 51 51 51 51 51 51 51 52 52 53 53 53 53 53 54 54 54 54 55 54 51 50 52 53 53 54 55 56 57 58 59 59 60 61 61 59 58 58 59 59 58 57 57 56 54 54 53 52 51 51 50
38 38 38 38 38 37 38 39 39 39 38 38 39 40 41 42 43 44 43 43 44 45 46 46 47 49 50 51 51 52 53 53 54 54 54 54 53 52 53 53 53 54 54 54 54 54 55 55 56 56 56 56 56 54 51 53 56 55 55 56 57 58 59 59 60 61 61 62 63 63 63 64 64 64 62 59 58 57 56 56 56 55 53 52 51
41 40 40 40 40 40 40 41 41 41 41 41 41 43 43 44 45 46 45 45 46 47 48 48 49 51 52 53 54 55 55 55 56 57 57 57 56 55 55 55 55 56 56 56 56 56 56 57 58 58 58 58 56 53 53 57 59 57 57 58 59 59 60 60 61 61 62 62 63 64 66 67 67 66 64 61 59 58 58 58 59 58 55 53 52
43 43 42 42 42 42 42 42 43 43 43 43 44 44 45 46 47 47 47 47 49 50 50 51 52 53 54 55 56 56 56 56 58 60 60 60 59 58 58 57 57 58 59 59 59 59 58 59 59 59 60 59 56 55 58 60 60 59 59 59 60 60 61 62 63 62 62 63 64 66 68 69 68 67 65 63 61 60 60 59 59 60 59 56 54
46 45 45 45 45 44 44 44 45 45 45 45 46 46 47 48 49 49 49 49 51 52 52 53 54 55 56 57 58 58 58 59 61 62 62 62 62 61 61 61 61 61 62 62 62 62 61 61 61 61 61 60 59 60 61 61 60 61 61 61 61 62 63 64 64 64 64 65 67 69 70 71 70 67 65 63 62 62 62 61 60 60 60 58 56
48 48 47 48 47 46 46 47 48 48 47 47 47 48 49 50 51 51 51 51 52 53 55 56 57 58 59 59 60 61 62 62 63 64 64 65 65 64 64 65 65 65 65 65 65 65 65 64 63 63 63 63 62 62 62 62 62 62 62 63 64 65 65 66 65 65 66 68 71 73 73 73 70 67 65 64 64 63 64 63 61 60 59 57 57
50 51 50 49 48 48 50 50 50 49 49 49 49 50 51 52 53 54 53 53 54 55 57 58 59 60 61 61 62 63 64 64 64 65 66 68 68 68 68 68 68 68 68 68 68 68 68 67 66 66 66 66 65 65 64 64 64 64 65 66 67 67 66 66 66 68 71 73 75 76 75 72 69 67 66 65 65 65 65 64 62 60 59 57 56
52 53 52 50 49 50 51 52 51 51 51 51 51 52 53 54 55 55 55 55 56 57 58 60 60 61 62 63 64 65 66 65 64 66 69 71 71 71 71 71 71 71 71 71 71 70 70 70 69 69 69 68 68 67 67 66 67 67 67 68 68 68 67 68 70 72 74 76 78 78 76 72 70 69 68 66 66 66 66 65 63 61 60 59 58
53 54 53 51 50 51 52 53 53 53 53 53 53 53 55 56 57 57 58 58 58 59 60 61 62 62 63 64 65 67 67 67 67 69 72 74 73 73 73 73 73 74 74 74 73 73 72 72 71 71 70 70 70 69 68 69 69 69 69 69 69 69 70 72 74 76 78 79 81 80 78 74 72 71 70 68 67 67 66 65 64 63 63 63 62
54 55 55 53 52 52 53 55 56 55 54 54 54 55 56 57 58 60 61 61 61 61 62 63 63 63 64 65 67 68 69 69 71 73 75 75 75 74 74 74 75 76 76 76 75 75 74 73 72 72 72 72 71 70 70 71 71 71 70 69 70 72 74 76 77 80 82 84 85 83 79 75 73 72 72 70 69 68 67 66 67 67 67 67 68
55 55 56 55 53 52 53 54 55 55 54 54 55 56 58 60 61 62 63 64 64 64 65 65 65 65 66 67 69 70 71 72 73 74 75 75 75 75 75 76 77 77 78 78 77 76 74 73 73 74 74 73 71 71 71 72 72 71 70 70 72 74 76 78 81 84 88 90 89 85 79 75 73 72 72 72 71 70 70 70 71 72 71 72 73
57 56 56 56 55 53 53 54 55 56 56 56 58 59 61 63 64 65 66 67 67 67 68 67 67 67 68 69 70 71 72 74 74 74 73 74 75 76 77 78 79 79 78 78 77 76 75 75 75 75 74 73 72 72 72 73 72 71 70 72 75 77 79 81 85 90 93 94 90 83 78 75 73 73 72 72 72 73 73 74 75 75 75 75 76
57 57 57 57 57 56 56 56 57 58 59 60 62 63 64 65 66 67 69 69 70 70 70 70 69 69 70 71 72 72 73 74 74 72 72 74 77 78 79 80 80 80 79 78 77 77 76 76 76 76 75 74 74 74 74 74 73 72 72 75 78 80 83 86 90 94 97 96 89 81 77 75 74 74 74 74 75 76 76 77 78 78 78 77 77
58 58 58 59 59 59 58 58 60 61 63 64 66 67 67 68 69 70 71 71 72 73 72 72 71 71 72 73 73 73 73 74 74 72 73 76 79 81 82 82 81 80 79 79 78 77 77 76 76 76 75 75 75 76 76 75 74 73 75 79 81 83 86 90 94 98 100 98 90 81 77 77 76 76 76 77 78 79 80 80 81 81 80 79 77
59 60 60 60 60 60 61 62 63 66 67 68 70 70 71 72 72 73 73 74 75 75 75 74 73 73 74 75 75 75 74 75 75 75 76 79 81 82 83 83 82 80 79 79 78 77 77 77 76 76 76 76 76 77 77 76 75 76 78 82 84 86 89 93 98 101 103 100 93 84 80 79 78 78 78 79 81 82 82 82 82 82 81 79 77
61 62 62 62 62 62 64 67 68 70 72 73 73 73 74 75 75 75 75 75 76 77 77 76 75 75 76 77 78 78 77 77 77 78 79 81 81 83 83 83 82 81 80 79 78 78 77 77 77 77 77 78 78 78 77 76 77 79 81 84 87 89 91 96 101 105 105 101 94 87 83 81 80 80 81 83 84 84 84 83 83 81 79 77 76
63 64 64 64 65 66 69 71 73 74 76 76 76 76 77 77 77 76 76 77 78 79 78 78 77 77 78 79 80 79 78 77 77 79 80 80 82 82 82 82 81 81 80 79 78 77 77 77 77 78 79 79 78 77 77 78 79 82 84 87 89 91 93 98 104 107 106 102 94 88 84 83 83 84 85 86 86 86 85 84 82 79 77 75 74
67 67 67 68 69 72 74 75 76 78 79 79 80 79 79 78 78 78 78 79 80 81 80 79 79 79 79 79 78 77 76 76 78 79 79 80 81 81 81 81 81 81 80 79 78 77 78 78 79 79 79 79 78 77 78 80 82 85 87 90 91 92 95 100 106 108 107 102 95 89 86 85 85 87 88 88 87 87 86 84 81 78 76 73 70
71 71 72 72 74 76 77 77 78 80 80 82 83 82 81 80 80 80 80 81 83 83 82 82 81 79 78 76 75 75 76 78 79 79 78 78 79 80 81 82 81 80 79 79 78 78 79 79 79 79 79 78 77 78 80 83 85 88 90 92 93 94 97 103 108 109 108 103 96 90 88 87 88 89 89 89 88 87 85 82 79 76 73 69 65
73 74 75 76 77 78 78 78 79 80 81 83 84 84 83 82 81 81 82 84 86 86 84 81 78 75 72 73 75 77 79 79 78 76 75 76 78 80 82 81 80 79 79 78 78 79 79 79 79 79 78 78 79 80 83 85 88 90 92 92 93 96 101 107 111 110 108 104 98 92 90 90 90 90 90 89 87 85 82 79 75 71 67 63 59
76 76 77 78 78 77 78 79 80 81 83 85 84 83 83 83 83 84 83 83 83 81 76 71 68 68 70 73 75 76 75 73 72 73 75 77 79 80 80 79 78 78 78 78 79 79 79 79 78 77 77 78 80 82 85 87 89 91 91 93 95 100 106 111 112 111 109 106 100 95 92 92 91 90 89 87 84 81 78 75 70 65 61 59 56
77 78 80 80 77 76 78 80 81 83 85 84 82 82 82 81 78 73 65 62 63 63 60 60 63 66 68 69 69 68 69 69 71 75 78 79 78 78 78 77 77 77 78 78 78 78 78 77 77 77 78 80 81 84 86 88 89 90 92 95 100 105 111 113 113 112 111 107 101 97 94 92 91 88 85 83 80 77 73 69 64 60 57 55 54
77 78 80 79 76 74 75 78 80 82 83 81 81 82 79 70 58 48 43 46 51 54 56 62 65 64 63 64 65 67 69 72 75 77 77 77 76 75 75 76 76 77 77 77 77 77 77 76 77 78 79 80 82 84 86 87 88 91 95 99 105 110 113 114 115 114 112 107 102 98 95 92 89 86 82 79 75 71 67 63 60 57 55 53 52
72 72 71 72 72 70 70 73 75 77 79 79 80 80 72 58 48 45 48 52 57 61 65 67 65 62 63 66 68 71 73 75 77 77 76 75 74 74 74 75 76 76 76 76 76 76 76 76 77 78 79 81 83 84 85 87 90 95 100 104 109 113 115 116 117 116 112 107 102 98 94 91 87 84 80 76 71 66 62 59 57 56 54 53 51
63 63 61 65 70 71 69 71 73 75 76 74 69 65 62 56 50 51 55 59 62 66 70 69 67 67 69 71 72 75 76 77 77 76 75 74 73 74 74 75 75 75 74 74 74 75 75 76 77 78 80 82 83 83 85 90 95 100 104 109 112 114 115 117 118 115 111 106 101 96 92 89 85 81 78 73 68 64 60 58 56 54 54 52 51
53 51 49 54 63 68 69 71 73 73 71 67 61 57 58 59 57 57 62 66 68 71 73 72 71 72 73 74 77 79 79 78 78 77 76 75 74 74 75 74 73 72 72 73 74 75 75 76 77 79 81 82 83 85 89 95 100 104 108 112 113 115 117 118 118 114 110 104 98 93 90 86 83 79 76 71 66 62 60 57 55 53 52 50 49
45 43 39 43 54 64 67 68 68 66 63 63 60 57 60 63 62 61 64 68 71 74 76 76 76 76 77 79 81 81 80 79 78 77 77 75 75 74 73 71 71 72 73 74 75 74 75 76 77 79 81 83 85 89 94 99 104 107 111 113 114 116 118 119 117 113 107 100 93 89 87 84 80 77 73 67 63 60 59 57 55 52 50 48 46
42 43 43 45 53 63 65 64 63 62 61 61 61 60 61 64 64 65 67 71 74 78 80 80 79 80 81 83 83 81 79 79 79 78 77 75 74 73 71 71 72 74 74 74 73 73 75 76 78 79 82 85 89 94 99 103 106 110 112 114 115 117 120 119 115 109 101 94 89 86 83 80 77 73 68 62 59 57 57 56 55 53 50 46 43
42 46 51 54 57 62 64 65 64 62 63 64 65 64 64 65 65 67 71 75 79 82 82 81 81 83 84 84 82 80 78 78 78 77 76 76 74 73 72 73 74 74 73 73 73 74 75 77 79 82 85 90 94 99 102 105 109 112 113 115 116 119 120 117 111 103 95 89 85 82 80 77 73 69 63 58 55 54 53 54 53 51 49 46 42
46 44 48 54 58 61 65 67 64 62 63 65 66 68 69 68 68 70 74 78 80 80 80 81 83 85 84 82 80 78 77 77 77 77 77 76 75 74 74 75 74 73 72 73 74 75 76 78 82 86 90 95 99 102 105 108 111 113 114 115 118 120 119 113 105 96 90 85 82 79 77 74 70 65 60 56 53 51 50 49 49 48 46 43 41
49 45 46 52 57 61 65 67 66 65 65 66 68 69 68 68 68 71 74 75 75 76 78 82 84 83 82 79 77 76 76 77 78 78 78 76 75 74 74 73 72 72 72 73 74 76 79 83 87 91 95 99 102 105 107 110 112 112 113 116 119 119 115 107 98 91 85 81 78 76 74 71 67 63 59 55 52 49 47 46 45 45 44 42 40
49 48 49 54 59 60 61 63 65 67 67 68 68 67 66 66 68 71 72 73 74 78 82 84 84 81 79 77 75 75 77 78 78 78 76 74 73 73 72 72 71 71 73 74 77 81 84 88 92 97 100 102 104 107 109 111 112 113 115 118 119 117 110 100 92 86 82 79 76 74 72 68 64 60 57 54 51 48 46 45 44 43 43 41 39
48 49 49 51 56 61 63 64 64 65 66 67 68 68 68 69 70 71 73 75 78 82 84 84 81 79 76 75 74 74 76 76 76 75 73 73 72 72 71 70 71 73 76 80 84 87 90 94 97 100 102 105 107 109 110 111 112 114 117 119 118 112 103 93 86 82 79 76 74 72 69 65 61 57 55 53 50 47 46 45 45 43 42 41 39
48 51 53 54 56 59 63 65 65 65 67 70 72 72 72 73 73 74 77 80 82 84 83 80 77 74 73 72 72 73 73 73 73 73 72 72 71 71 71 73 75 79 83 86 89 91 94 98 100 103 104 106 108 109 110 111 113 116 118 118 114 106 96 88 84 80 76 74 72 70 66 62 59 56 54 53 50 48 46 45 45 43 42 40 38
56 57 60 62 62 63 66 68 70 71 73 74 75 75 74 74 75 78 81 83 83 81 76 72 70 68 68 69 70 71 71 71 71 71 70 70 71 73 75 77 80 83 87 89 92 95 97 100 102 104 106 107 108 109 110 113 115 117 118 116 109 99 91 85 81 77 74 73 70 67 64 60 58 56 54 52 50 48 46 45 44 43 41 39 37
59 61 63 64 65 68 71 74 75 76 75 74 75 76 77 77 78 80 79 77 74 70 66 63 64 64 65 66 67 68 68 68 69 70 71 71 73 76 79 81 84 87 90 92 95 97 99 102 104 105 106 107 108 110 113 115 117 118 117 111 102 94 87 83 79 75 73 71 69 65 62 58 56 54 53 51 50 48 46 44 43 42 40 38 36
58 61 64 67 69 70 71 73 74 74 72 72 73 75 77 77 76 74 70 65 63 62 61 60 62 63 64 65 65 66 67 69 70 72 72 73 76 79 82 84 87 90 93 96 98 99 101 103 104 105 107 109 111 113 115 117 118 117 113 106 97 90 85 80 77 74 72 70 67 63 59 56 54 52 51 50 49 48 46 44 43 41 39 37 35
57 59 62 66 70 71 72 74 75 74 74 74 73 73 73 70 67 63 60 59 59 60 60 60 62 64 65 67 69 70 71 72 73 73 74 76 79 82 85 88 90 93 95 97 99 100 101 103 105 107 108 110 113 115 116 118 118 115 109 100 92 87 83 78 75 73 71 68 64 60 57 54 52 51 50 49 49 48 46 44 42 40 39 37 35
58 59 61 63 66 69 71 73 74 74 73 71 69 67 65 63 60 59 59 59 59 60 61 62 64 66 67 69 71 72 73 74 74 75 77 79 82 85 88 91 94 95 96 97 98 100 101 103 105 107 109 111 113 115 117 117 116 111 104 96 89 85 81 77 74 72 69 66 62 58 55 52 51 49 48 48 48 48 46 44 41 39 38 36 34
59 59 60 60 62 64 66 68 69 69 68 66 64 63 62 62 62 63 63 62 62 63 64 65 66 68 69 70 71 72 73 75 76 78 80 83 86 89 92 94 95 95 96 97 98 100 102 104 106 108 110 112 113 115 115 114 111 106 99 92 87 83 79 75 73 70 67 63 59 56 53 51 49 48 47 46 47 46 46 44 41 39 37 36 34
63 62 61 61 61 63 64 65 65 65 65 64 64 63 62 63 64 64 64 63 64 65 66 68 69 70 71 72 73 73 74 76 78 81 83 86 88 90 92 94 95 96 97 98 99 102 104 106 107 108 110 112 113 113 111 109 106 101 95 89 85 82 78 74 71 69 66 61 57 54 51 49 48 47 46 45 45 45 45 44 41 39 36 35 34
68 67 66 63 61 60 60 60 59 59 60 61 61 61 62 63 64 65 66 67 69 70 71 71 72 72 73 73 74 74 76 78 81 84 86 87 89 91 93 95 97 97 98 100 102 104 106 107 107 109 110 111 110 108 106 104 101 97 91 87 84 81 77 73 70 68 64 60 56 52 50 48 47 46 45 45 44 44 44 43 42 39 36 34 33
72 72 72 71 67 63 60 56 53 53 55 57 59 61 63 64 65 67 67 69 70 72 72 73 73 74 75 76 77 78 80 82 84 86 87 89 91 94 96 98 99 99 100 103 105 106 106 107 108 109 109 108 107 104 103 101 98 93 88 85 82 79 76 73 70 67 63 59 54 50 48 47 45 45 45 44 44 43 43 42 41 39 37 34 32
76 76 77 76 75 72 70 66 63 63 64 65 65 67 69 70 71 71 70 70 72 72 73 74 76 76 77 78 79 79 81 84 86 89 91 93 95 97 98 99 100 102 103 105 106 106 107 107 107 107 106 105 103 101 100 98 95 91 86 83 81 78 74 71 69 66 62 57 53 49 47 45 44 44 44 44 43 43 42 41 40 39 37 34 32
73 74 75 76 76 76 75 73 71 71 71 71 72 73 73 73 73 73 71 70 70 71 71 73 74 75 76 78 80 82 86 89 91 93 94 94 95 97 98 100 102 104 105 105 105 106 107 106 105 104 103 102 101 99 98 96 93 89 84 81 79 76 73 70 67 64 60 56 52 49 46 44 43 43 43 42 42 42 41 40 39 38 37 34 32
73 72 73 74 75 76 76 74 73 72 71 70 71 71 70 70 70 70 69 69 70 72 73 75 77 78 80 82 85 88 91 93 93 94 94 95 97 98 100 101 103 104 104 104 105 105 105 104 103 102 101 100 99 98 96 95 92 87 83 80 78 75 72 69 66 63 59 55 51 48 45 43 43 42 42 41 41 40 40 39 38 37 36 35 32
75 73 72 72 73 74 74 73 72 72 72 72 72 71 72 72 73 73 73 74 76 78 80 81 82 82 84 87 89 91 93 93 94 95 97 98 100 101 101 102 102 102 103 104 104 103 102 102 102 101 101 100 99 97 96 93 89 85 81 78 76 73 70 68 65 62 58 54 50 47 45 43 42 42 41 41 40 39 38 38 37 37 36 35 32
Wind_Direction
261 265 269 273 275 277 278 280 282 285 290 294 298 300 301 303 304 305 306 308 309 311 312 314 315 316 317 319 320 322 324 326 327 328 329 330 330 330 330 330 332 333 334 334 333 331 329 330 330 329 327 326 325 324 323 322 321 318 317 318 319 318 316 317 319 321 320 319 318 315 313 311 309 308 307 308 308 306 304 303 301 297 293 287 281
260 263 265 269 272 275 277 278 280 283 287 292 296 298 299 301 302 304 305 307 308 310 311 313 314 314 316 318 319 320 323 325 326 327 328 329 329 329 328 329 331 331 332 332 331 329 329 329 328 327 326 324 323 323 322 321 320 317 314 314 317 318 317 318 319 320 320 320 318 317 315 313 312 311 310 309 309 308 306 305 304 302 299 294 288
259 261 262 264 266 270 274 277 279 282 285 289 293 296 297 298 300 302 304 305 307 308 310 311 312 313 315 316 318 320 322 324 325 326 326 327 328 328 327 328 329 330 331 331 330 329 328 327 326 325 324 323 322 322 321 319 317 315 313 313 315 317 317 317 318 318 319 319 318 317 315 314 314 313 313 312 310 309 307 306 305 303 301 297 293
259 260 260 260 262 265 271 276 278 280 284 287 290 293 295 296 298 300 302 303 305 307 309 310 311 313 314 315 317 319 321 323 324 324 325 326 327 327 327 328 329 329 329 330 329 328 326 325 324 323 323 322 321 321 320 318 317 316 314 314 314 316 316 316 316 317 317 317 317 316 315 315 315 315 315 314 311 309 308 307 305 303 301 298 294
261 263 263 264 265 268 272 276 278 281 284 286 288 290 293 295 296 298 300 302 304 306 308 310 311 312 313 314 316 318 321 322 322 323 324 325 325 326 326 326 327 327 327 327 326 326 325 324 322 322 321 321 321 320 317 316 317 316 315 314 314 315 315 316 316 316 316 317 317 317 317 316 316 315 315 313 311 309 308 307 306 304 301 298 293
263 265 266 269 270 273 274 276 279 282 284 285 287 289 291 293 294 296 299 301 303 305 307 310 311 312 313 314 315 317 319 320 321 321 322 323 323 324 324 324 324 324 324 324 324 324 324 323 321 320 320 320 320 318 315 315 317 316 314 314 314 315 315 316 316 316 317 317 317 318 318 317 316 315 315 313 310 309 309 308 306 304 303 299 293
263 265 266 268 271 273 275 277 279 281 282 284 285 287 289 291 293 295 298 301 303 304 306 309 311 312 313 314 314 315 315 317 318 320 320 320 321 322 322 322 322 321 322 322 322 323 323 322 321 320 320 321 320 317 313 314 316 316 314 314 314 314 315 315 316 316 317 317 317 316 316 315 315 315 314 313 310 309 309 308 306 305 304 300 294
263 264 265 267 269 271 273 275 277 279 281 282 284 286 288 290 292 295 298 301 302 304 306 309 310 311 312 313 314 314 313 314 316 318 318 318 318 319 319 319 319 320 320 321 322 322 322 322 321 319 320 320 318 315 315 315 315 315 315 314 314 315 315 316 317 317 318 318 317 316 315 315 315 314 314 312 311 311 310 308 307 305 304 301 297
262 264 265 267 269 271 273 274 276 277 279 281 283 286 288 290 292 295 298 301 302 304 307 309 310 311 312 313 313 313 313 313 314 315 315 316 316 317 317 318 318 319 320 321 321 321 321 321 320 319 319 320 318 317 317 317 316 315 315 315 315 316 317 318 319 319 319 318 317 316 316 315 315 315 313 312 312 311 310 309 308 305 303 301 298
262 264 265 267 269 272 273 274 275 277 279 281 284 286 288 291 293 296 298 300 302 305 307 308 309 311 312 313 313 312 312 312 312 313 313 313 314 315 316 317 318 319 320 320 320 320 321 321 321 320 320 320 319 319 318 317 316 316 316 316 317 318 319 320 320 320 319 319 318 317 317 316 316 316 314 314 314 312 311 310 308 305 303 301 298
261 263 265 267 269 272 273 274 275 277 280 282 285 287 290 292 294 296 298 300 303 305 306 307 308 309 311 311 311 311 310 310 310 311 312 312 313 314 315 317 318 319 319 319 320 320 321 321 321 320 321 321 321 320 319 318 318 317 317 318 318 319 320 320 320 320 320 319 319 319 318 318 317 316 316 315 314 312 311 310 308 306 303 300 297
260 263 265 267 270 271 273 274 276 278 281 284 286 288 290 292 293 295 298 300 301 303 304 305 306 308 309 309 309 309 309 308 307 309 311 312 313 314 315 316 317 318 318 319 320 320 321 321 321 321 321 322 321 320 319 319 318 318 318 319 319 319 320 321 321 321 320 320 320 320 320 320 318 317 316 316 314 312 311 310 308 306 303 301 299
260 262 265 267 269 270 272 274 277 279 282 285 287 288 290 291 293 295 297 299 300 301 301 303 304 305 306 307 306 307 308 307 306 308 310 311 312 313 314 315 316 316 317 318 319 320 321 321 321 321 321 321 321 320 319 319 319 319 319 319 320 320 321 322 321 321 320 321 322 322 321 320 319 317 316 315 313 312 311 310 309 307 305 304 302
260 263 265 267 269 270 273 275 277 280 282 285 287 288 290 291 293 295 296 297 298 299 300 301 302 303 304 305 304 305 306 306 305 306 307 309 310 311 312 314 315 316 317 318 319 320 320 320 320 320 320 320 320 319 318 318 319 319 320 320 320 322 322 322 321 321 322 323 324 323 322 320 319 317 316 315 313 313 313 312 311 309 308 306 303
262 263 266 268 269 271 273 275 278 281 283 285 287 289 290 291 292 293 294 295 296 297 298 299 300 301 303 303 303 303 305 305 305 305 305 306 308 310 311 313 314 315 317 318 318 319 319 319 319 319 319 319 319 318 318 318 318 319 319 320 321 322 322 322 323 324 325 325 325 324 322 320 318 317 316 315 315 315 315 314 312 310 308 306 303
263 265 267 269 270 272 274 277 280 282 284 286 288 288 289 290 291 292 292 293 295 295 295 297 298 300 301 301 301 302 304 304 304 304 304 305 308 309 311 312 313 315 316 317 318 319 319 319 319 319 319 318 317 317 317 317 318 318 319 321 322 322 323 324 326 327 327 327 325 323 322 320 318 317 316 316 316 316 315 314 311 310 308 306 303
265 267 269 271 273 274 276 278 281 283 284 286 286 287 287 288 289 290 290 291 292 292 293 294 296 298 298 299 300 301 302 303 303 302 303 305 308 309 310 311 313 314 315 316 317 318 318 318 318 318 318 317 316 316 317 317 318 318 319 321 323 323 325 327 328 328 328 328 327 324 322 320 319 318 318 317 316 316 315 313 311 309 308 305 302
265 267 269 272 274 276 278 280 282 283 283 284 284 284 285 286 286 287 288 288 289 290 291 293 295 296 297 298 298 300 301 302 301 301 302 305 307 309 310 312 313 314 315 316 316 317 317 317 317 317 317 316 315 316 316 316 317 318 320 322 324 325 327 329 328 328 329 329 328 324 322 321 319 318 318 317 316 315 313 312 310 309 307 304 302
263 265 268 270 272 276 278 279 280 280 280 280 281 282 283 283 284 285 286 287 288 289 291 293 295 296 297 297 297 298 299 299 299 300 301 303 305 308 310 312 313 313 314 315 316 316 316 316 316 316 315 315 315 315 315 316 317 319 320 323 325 327 328 328 328 328 329 329 328 325 322 321 319 318 317 316 315 313 312 311 310 308 306 304 302
262 264 266 268 271 274 276 276 276 276 276 277 278 279 281 282 283 283 285 286 288 289 291 292 294 294 295 295 296 296 297 297 298 299 299 301 304 308 310 311 312 312 313 314 315 315 315 315 315 314 314 314 314 315 315 317 318 318 321 324 326 327 327 327 328 328 329 330 328 325 322 320 319 318 317 315 314 313 312 311 309 307 305 303 301
260 262 264 267 269 270 271 271 272 272 273 274 276 277 278 280 281 283 284 286 287 288 289 291 291 292 292 293 294 294 294 295 297 299 299 301 305 308 309 310 311 311 312 313 314 314 314 314 313 313 313 313 314 314 315 316 317 319 322 324 326 326 325 326 327 328 329 330 328 325 322 320 319 318 317 315 314 313 312 311 309 307 305 303 301
257 260 262 263 265 266 267 268 269 271 272 274 275 276 278 279 281 283 285 286 286 287 288 289 289 289 290 291 292 293 294 295 298 300 300 302 305 307 308 309 310 311 312 312 313 313 313 313 312 312 312 313 313 314 315 316 318 321 323 324 324 324 324 325 326 327 329 329 327 324 322 320 319 318 317 316 315 314 313 311 310 308 306 305 303
256 258 260 261 263 264 266 268 270 272 273 275 276 278 280 282 283 284 286 286 286 286 287 287 287 287 288 290 292 293 294 296 299 300 301 303 305 306 308 308 309 310 311 311 311 311 312 312 312 312 312 312 312 313 315 317 320 321 322 323 323 323 323 324 325 327 329 329 327 324 322 320 319 318 317 316 315 314 313 311 310 309 307 306 304
255 256 258 260 262 264 267 269 271 274 276 277 278 280 283 284 286 287 288 288 288 287 285 284 283 285 287 290 292 294 295 297 299 301 302 304 306 306 307 308 309 309 310 310 310 310 311 311 311 311 311 311 312 314 317 319 320 321 321 322 322 322 322 323 325 327 329 329 326 323 322 320 319 318 317 316 315 314 313 311 310 309 308 307 306
254 256 257 259 261 264 267 269 272 275 276 276 279 282 285 287 289 290 290 289 287 284 281 280 283 288 291 293 294 295 296 298 300 302 304 305 306 306 306 307 308 308 308 309 309 309 310 310 310 310 310 311 314 317 318 319 319 320 321 322 321 321 322 323 325 327 329 329 326 323 321 320 319 318 316 316 315 314 313 312 311 311 310 309 308
253 255 256 257 259 262 265 268 271 273 275 278 280 283 286 289 291 292 289 284 280 276 276 282 289 293 294 295 296 296 297 299 301 303 304 305 305 305 306 306 306 307 307 308 308 309 309 309 309 309 311 314 317 318 318 318 319 320 320 320 320 321 322 324 326 328 329 328 326 323 321 319 317 317 316 316 315 315 314 313 312 312 312 311 309
250 253 256 259 261 263 265 269 272 274 276 278 279 281 283 285 285 280 271 266 266 270 279 289 294 295 295 296 297 298 299 301 303 304 305 305 305 305 305 305 305 306 306 307 308 308 308 308 309 311 314 317 318 318 318 318 319 318 318 318 320 321 323 325 327 328 328 327 324 322 319 317 317 317 317 317 316 316 315 314 314 314 313 312 311
248 251 257 264 267 268 270 272 273 274 275 275 275 276 275 270 265 262 260 257 259 267 280 290 292 293 295 297 298 300 302 303 304 305 305 304 304 303 303 304 304 305 306 307 307 307 307 309 311 314 316 317 318 318 318 317 317 317 317 318 320 322 324 326 327 328 327 325 322 320 318 318 318 318 318 318 318 317 317 317 317 316 315 314 313
248 249 256 264 267 268 270 271 273 275 275 273 271 270 268 261 253 253 256 256 258 266 278 286 289 292 295 297 299 302 303 304 305 304 304 303 303 303 303 303 304 305 306 307 307 307 309 311 313 315 316 317 317 316 316 316 316 316 317 319 321 323 324 326 327 326 325 323 321 320 319 319 319 319 319 320 320 319 319 319 318 317 316 314 313
245 245 251 257 260 264 268 271 273 274 273 269 264 261 261 259 254 250 250 253 259 268 277 283 287 291 294 297 299 301 303 303 303 303 303 303 302 302 303 303 304 305 306 306 308 309 311 313 314 315 315 314 314 314 314 314 315 316 318 320 322 323 325 326 326 325 323 322 321 320 320 320 320 320 321 322 321 321 319 319 318 317 316 314 313
239 242 247 250 255 263 268 270 269 266 262 260 258 255 254 257 257 254 252 254 260 269 276 281 285 289 293 296 298 300 301 302 302 302 302 302 301 301 302 303 304 305 306 308 310 312 313 313 313 313 312 311 311 312 313 314 315 317 319 321 322 323 325 326 325 324 323 322 321 320 320 321 321 322 322 323 322 321 319 319 318 317 316 314 313
237 243 248 250 256 264 265 260 258 255 249 247 248 249 251 255 258 257 255 257 263 270 275 279 284 288 291 294 297 299 300 301 301 301 300 300 300 300 301 302 304 306 308 311 312 312 313 312 311 309 309 309 310 311 312 314 316 318 320 321 322 324 325 325 324 323 322 321 320 321 321 321 321 322 322 322 322 321 319 318 318 317 316 316 315
232 239 246 249 255 259 253 246 244 243 239 238 241 246 251 256 258 258 260 264 268 272 275 278 282 286 290 294 297 298 299 299 299 298 298 298 298 299 300 303 306 309 311 312 312 312 311 310 308 307 307 308 309 311 312 314 316 318 320 321 323 324 325 324 323 322 321 321 320 321 321 321 321 322 322 323 322 321 318 317 316 316 316 316 316
225 231 239 247 249 245 238 234 234 235 236 239 243 247 252 257 259 261 265 268 270 272 274 277 281 286 290 294 295 296 296 296 296 296 296 296 297 299 302 306 309 311 311 311 310 309 308 306 305 305 306 307 309 311 312 315 317 319 321 322 323 324 324 323 322 321 321 320 320 321 321 321 322 322 322 323 322 320 317 316 315 316 316 316 316
223 222 228 237 239 235 234 234 233 233 237 241 245 249 254 258 260 262 264 267 269 271 274 278 282 287 290 292 293 293 294 294 294 294 295 296 299 302 306 309 310 310 309 308 307 306 304 304 304 305 306 308 310 311 313 316 318 319 321 322 323 324 323 322 321 321 320 320 321 322 322 322 323 322 322 322 322 320 318 317 317 317 318 318 317
231 231 234 236 234 232 234 236 236 236 238 242 246 252 255 256 257 259 262 265 269 272 276 280 284 287 289 290 290 291 292 292 293 294 295 298 302 306 309 309 308 307 306 305 304 303 303 304 305 306 308 309 310 312 314 316 318 319 320 322 323 323 322 322 321 321 321 321 322 322 323 323 322 322 321 322 322 321 321 320 321 321 320 319 318
241 242 240 237 234 234 235 236 238 241 243 245 248 251 252 253 256 260 263 266 270 274 278 282 284 285 286 287 288 289 290 292 293 294 297 301 305 308 308 307 305 304 303 303 302 303 303 304 306 307 308 309 311 313 315 316 318 319 321 322 323 323 322 321 321 321 322 322 323 323 323 322 322 322 322 322 323 324 324 324 324 324 322 321 319
230 232 233 234 235 236 235 235 238 242 244 246 248 250 252 256 259 261 263 267 271 276 279 281 282 283 284 285 287 289 290 292 294 296 300 303 306 306 304 302 301 301 301 301 302 303 304 305 306 307 309 310 312 314 315 317 318 320 321 323 323 322 322 322 322 322 322 323 323 323 323 322 322 322 323 324 325 326 327 327 326 324 323 321 319
221 223 229 233 234 233 233 234 238 241 244 247 249 252 255 257 259 260 264 269 273 276 278 279 281 282 283 285 287 289 291 293 296 298 300 302 302 301 300 300 300 300 300 301 302 304 305 305 306 308 310 311 313 314 316 317 319 320 322 323 323 322 322 322 322 322 323 323 323 323 323 323 323 323 324 325 326 326 327 327 325 324 323 321 319
224 225 227 231 232 232 234 236 240 243 246 249 251 253 255 256 258 262 267 270 272 274 275 277 279 280 282 285 288 290 292 294 295 296 298 298 298 298 298 299 299 299 299 301 302 304 305 306 307 309 310 312 313 315 317 318 319 321 322 323 322 321 322 322 322 322 323 324 324 324 323 323 323 323 323 324 325 325 326 327 326 324 323 321 319
231 231 231 233 235 236 237 239 241 243 246 249 251 253 255 258 261 264 267 268 269 271 272 274 277 279 281 284 286 288 291 293 294 295 297 297 297 297 297 297 297 298 299 301 302 303 305 306 308 310 311 313 314 316 318 318 319 321 322 322 321 321 322 323 322 323 324 324 324 324 323 322 322 322 322 323 324 324 325 326 326 324 323 321 319
238 237 237 237 238 239 240 240 241 243 246 249 252 255 258 260 262 263 264 265 267 269 272 274 277 279 282 285 287 289 291 293 294 295 295 295 295 295 295 295 297 298 299 301 302 304 306 308 309 311 313 314 316 317 318 318 319 321 322 322 321 322 323 323 323 323 324 324 324 323 322 321 321 321 321 322 323 323 324 326 326 325 323 322 320
245 242 239 237 237 238 240 241 243 246 249 253 255 257 259 259 258 259 260 263 266 268 271 274 277 280 283 286 288 290 291 291 292 293 293 293 293 293 294 295 296 297 299 301 302 304 307 309 311 312 314 315 316 317 317 318 319 320 321 321 322 322 323 323 323 323 324 323 323 322 321 320 320 320 321 321 322 322 324 325 326 325 324 322 321
247 245 243 242 241 241 243 245 247 249 252 254 256 257 257 258 259 259 261 264 267 269 271 273 276 279 281 283 285 287 288 289 290 290 291 291 292 293 294 295 295 297 299 301 303 305 307 309 311 313 314 315 315 316 316 317 318 320 321 321 321 322 323 322 322 323 323 322 321 320 319 319 319 320 320 321 322 322 323 324 325 326 325 323 321
248 249 250 251 250 251 252 253 254 255 255 256 256 257 258 259 260 262 264 267 269 271 273 274 276 279 281 282 283 285 286 287 288 289 290 291 291 292 293 294 295 297 299 301 303 305 308 310 311 312 313 313 314 315 316 317 318 319 320 320 321 322 322 322 322 322 322 321 320 319 319 318 319 319 320 321 321 322 322 323 324 325 325 323 321
250 251 252 254 255 255 256 256 256 256 256 256 256 257 258 260 263 265 267 269 272 273 275 276 278 280 281 282 283 285 287 288 289 289 289 289 290 291 292 293 295 297 299 301 303 306 308 309 310 311 312 313 314 315 316 316 317 318 319 320 321 321 321 321 322 322 321 320 319 318 318 317 318 319 320 321 321 321 321 322 323 324 325 324 321
252 251 251 252 254 254 255 254 253 253 256 258 260 261 263 265 267 269 270 272 274 276 278 279 280 281 282 284 286 288 288 288 287 286 286 288 289 290 292 293 295 297 299 302 304 306 308 309 309 310 311 312 313 314 315 316 317 318 318 319 320 321 321 321 321 321 320 319 318 317 316 316 317 318 319 320 321 321 321 322 322 323 324 323 322
252 251 252 252 253 254 254 254 254 255 258 261 264 265 266 267 269 271 273 275 277 279 280 282 282 283 284 285 286 285 284 283 283 284 285 287 289 290 292 293 295 298 300 302 304 306 307 308 309 310 311 312 313 314 315 316 317 317 318 319 320 321 320 320 321 320 319 318 316 315 315 315 316 317 319 319 320 320 321 321 322 322 323 323 322
252 253 253 253 254 255 255 256 257 259 261 263 265 267 269 270 272 273 275 277 278 278 279 279 279 279 280 280 280 280 280 281 282 284 285 287 288 290 292 295 297 299 301 302 304 305 306 307 309 310 311 312 313 314 315 316 317 317 318 319 320 320 320 320 320 319 318 316 314 313 313 314 315 316 317 318 319 319 320 321 321 321 322 322 322
254 255 255 255 255 256 256 257 258 259 260 261 263 265 267 268 269 270 271 271 271 271 271 272 272 274 275 276 277 278 279 281 282 284 285 287 289 291 293 295 297 298 300 302 304 305 306 307 308 310 311 313 313 314 315 316 317 317 318 318 319 319 319 319 319 318 317 314 312 311 311 312 314 315 316 317 318 318 319 320 321 321 321 321 321
254 256 257 257 257 258 258 258 258 258 258 259 260 261 262 264 265 266 267 267 268 269 270 272 274 275 276 276 277 278 279 280 282 284 285 287 289 291 293 294 296 298 300 302 303 305 306 307 308 309 311 312 313 314 316 317 317 316 317 317 318 318 318 317 318 317 315 313 310 309 309 311 312 313 315 316 317 317 318 319 320 320 320 320 320